Date String (YYYY-MM-DD hh:mm:ss) UTC,Instrument flags,Ambient pressure (hPa),Sample flow (lpm),Bypass flow (lpm),Sample temperature (°C),Ambient temperature (°C),ASC tube jacket temperature (°C),LED temperature (°C),Box temperature (°C),Sample RH (%),Span deviation,Mass concentration (μg/m³),Mass concentration (μg/m³),Mass concentration (μg/m³)
DateTimeUTC,F1_M11,P_M11,Q1_M11,Q2_M11,T1_M11,T2_M11,T3_M11,T4_M11,T5_M11,U1_M11,ZSPAN_M11,X2_M11,X0_M11,X1_M11
2022-07-13 22:00:00,,0827.7,5.00,0.00,29.3,28.2,00.0,37.9,31.3,17.4,0000.0,0005.35,0010.83,0004.66
2022-07-13 22:01:00,,0827.7,5.00,0.00,29.3,27.8,00.0,37.9,31.3,17.7,0000.0,0005.36,0011.17,0004.66
2022-07-13 22:02:00,,0827.7,4.99,0.00,29.3,27.3,00.0,37.9,31.2,17.6,0000.0,0005.37,0011.18,0004.65
2022-07-13 22:03:00,,0827.7,5.01,0.00,29.3,27.2,00.0,37.9,31.1,17.7,0000.0,0005.38,0011.08,0004.66
2022-07-13 22:04:00,,0827.7,5.01,0.00,29.2,27.3,00.0,37.9,31.0,17.2,0000.0,0005.36,0010.86,0004.66
2022-07-13 22:05:00,,0827.7,4.99,0.00,29.2,27.5,00.0,37.9,31.0,17.2,0000.0,0005.34,0011.03,0004.65
2022-07-13 22:06:00,,0827.8,5.01,0.00,29.3,27.7,00.0,37.9,31.1,17.3,0000.0,0005.31,0011.63,0004.64
2022-07-13 22:07:00,,0827.7,4.99,0.00,29.3,27.9,00.0,37.9,31.2,17.4,0000.0,0005.32,0011.92,0004.64
2022-07-13 22:08:00,,0827.7,5.00,0.00,29.3,28.1,00.0,37.9,31.3,17.6,0000.0,0005.35,0012.76,0004.64
2022-07-13 22:09:00,,0827.7,5.00,0.00,29.4,28.1,00.0,37.9,31.3,17.9,0000.0,0005.32,0012.44,0004.66
2022-07-13 22:10:00,,0827.7,4.99,0.00,29.3,27.4,00.0,37.9,31.2,17.3,0000.0,0005.36,0012.44,0004.67
2022-07-13 22:11:00,,0827.7,5.01,0.00,29.3,27.1,00.0,37.9,31.1,17.2,0000.0,0005.39,0012.57,0004.68
2022-07-13 22:12:00,,0827.7,5.00,0.00,29.3,27.2,00.0,37.9,31.1,17.5,0000.0,0005.42,0012.47,0004.68
2022-07-13 22:13:00,,0827.7,5.01,0.00,29.3,27.4,00.0,37.9,31.0,17.7,0000.0,0005.45,0012.59,0004.68
2022-07-13 22:14:00,,0827.7,4.99,0.00,29.3,27.6,00.0,37.9,31.1,18.0,0000.0,0005.45,0012.80,0004.67
2022-07-13 22:15:00,,0827.7,5.00,0.00,29.3,27.8,00.0,37.9,31.2,18.0,0000.0,0005.47,0012.88,0004.68
2022-07-13 22:16:00,,0827.7,5.02,0.00,29.3,28.0,00.0,37.9,31.3,17.8,0000.0,0005.46,0012.49,0004.68
2022-07-13 22:17:00,,0827.7,5.00,0.00,29.4,28.0,00.0,37.9,31.3,18.0,0000.0,0005.53,0012.47,0004.69
2022-07-13 22:18:00,,0827.7,4.98,0.00,29.3,27.3,00.0,37.9,31.2,17.7,0000.0,0005.52,0011.56,0004.69
2022-07-13 22:19:00,,0827.7,5.01,0.00,29.3,27.1,00.0,37.9,31.1,17.7,0000.0,0005.47,0011.05,0004.69
2022-07-13 22:20:00,,0827.7,5.00,0.00,29.3,27.1,00.0,37.9,31.1,17.9,0000.0,0005.47,0011.42,0004.69
2022-07-13 22:21:00,,0827.7,5.01,0.00,29.2,27.3,00.0,37.9,31.0,17.7,0000.0,0005.46,0012.11,0004.69
2022-07-13 22:22:00,,0827.7,4.99,0.00,29.2,27.5,00.0,37.9,31.0,17.5,0000.0,0005.46,0012.42,0004.68
2022-07-13 22:23:00,,0827.7,5.00,0.00,29.3,27.7,00.0,37.9,31.1,17.6,0000.0,0005.47,0013.16,0004.69
2022-07-13 22:24:00,,0827.7,5.00,0.00,29.3,27.9,00.0,37.9,31.2,17.8,0000.0,0005.41,0013.07,0004.69
2022-07-13 22:25:00,,0827.7,5.00,0.00,29.3,28.1,00.0,37.9,31.3,17.3,0000.0,0005.41,0013.44,0004.70
2022-07-13 22:26:00,,0827.7,5.00,0.00,29.3,27.7,00.0,37.9,31.2,17.1,0000.0,0005.42,0013.81,0004.70
2022-07-13 22:27:00,,0827.7,5.00,0.00,29.3,27.1,00.0,37.9,31.1,17.3,0000.0,0005.43,0013.95,0004.71
2022-07-13 22:28:00,,0827.7,5.00,0.00,29.3,27.1,00.0,37.9,31.1,17.2,0000.0,0005.38,0013.86,0004.70
2022-07-13 22:29:00,,0827.7,5.01,0.00,29.2,27.2,00.0,37.9,31.0,17.3,0000.0,0005.37,0013.87,0004.70
2022-07-13 22:30:00,,0827.7,4.99,0.00,29.2,27.4,00.0,37.9,31.0,18.0,0000.0,0005.37,0013.65,0004.71
2022-07-13 22:31:00,,0827.7,5.01,0.00,29.2,27.6,00.0,37.9,31.1,18.3,0000.0,0005.38,0013.42,0004.71
2022-07-13 22:32:00,,0827.7,4.99,0.00,29.3,27.8,00.0,37.9,31.2,19.0,0000.0,0005.39,0013.01,0004.72
2022-07-13 22:33:00,,0827.6,5.01,0.00,29.3,28.0,00.0,37.9,31.2,19.0,0000.0,0005.42,0012.85,0004.72
2022-07-13 22:34:00,,0827.6,5.01,0.00,29.4,28.2,00.0,38.0,31.3,19.3,0000.0,0005.39,0012.68,0004.71
2022-07-13 22:35:00,,0827.6,4.99,0.00,29.4,27.9,00.0,37.9,31.3,18.9,0000.0,0005.39,0012.50,0004.71
2022-07-13 22:36:00,,0827.5,5.01,0.00,29.3,27.3,00.0,37.9,31.2,18.1,0000.0,0005.47,0012.64,0004.71
2022-07-13 22:37:00,,0827.5,4.99,0.00,29.3,27.2,00.0,37.9,31.2,17.9,0000.0,0005.51,0013.06,0004.71
2022-07-13 22:38:00,,0827.5,5.00,0.00,29.3,27.3,00.0,37.9,31.1,18.3,0000.0,0005.50,0013.94,0004.71
2022-07-13 22:39:00,,0827.5,5.01,0.00,29.3,27.4,00.0,37.9,31.0,17.7,0000.0,0005.50,0014.10,0004.72
2022-07-13 22:40:00,,0827.5,4.99,0.00,29.3,27.6,00.0,37.9,31.1,18.3,0000.0,0005.56,0014.34,0004.72
2022-07-13 22:41:00,,0827.6,5.01,0.00,29.3,27.9,00.0,37.9,31.2,18.2,0000.0,0005.61,0014.97,0004.71
2022-07-13 22:42:00,,0827.5,5.00,0.00,29.3,28.1,00.0,38.0,31.3,18.4,0000.0,0005.60,0015.14,0004.70
2022-07-13 22:43:00,,0827.5,5.00,0.00,29.4,28.1,00.0,38.0,31.3,18.4,0000.0,0005.58,0015.40,0004.70
2022-07-13 22:44:00,,0827.5,5.01,0.00,29.4,27.5,00.0,37.9,31.2,18.7,0000.0,0005.54,0016.11,0004.68
2022-07-13 22:45:00,,0827.5,5.00,0.00,29.3,27.1,00.0,37.9,31.2,18.5,0000.0,0005.52,0015.37,0004.68
2022-07-13 22:46:00,,0827.6,5.00,0.00,29.3,27.1,00.0,37.9,31.1,17.4,0000.0,0005.53,0016.20,0004.69
2022-07-13 22:47:00,,0827.5,5.00,0.00,29.3,27.3,00.0,37.9,31.0,17.7,0000.0,0005.47,0015.97,0004.69
2022-07-13 22:48:00,,0827.6,4.99,0.00,29.2,27.5,00.0,37.9,31.1,17.1,0000.0,0005.41,0015.73,0004.69
2022-07-13 22:49:00,,0827.6,5.00,0.00,29.3,27.7,00.0,37.9,31.1,17.6,0000.0,0005.39,0014.54,0004.68
2022-07-13 22:50:00,,0827.5,5.00,0.00,29.3,27.9,00.0,37.9,31.2,17.6,0000.0,0005.43,0013.95,0004.69
2022-07-13 22:51:00,,0827.6,5.00,0.00,29.3,28.1,00.0,38.0,31.3,17.3,0000.0,0005.40,0013.67,0004.70
2022-07-13 22:52:00,,0827.6,5.00,0.00,29.4,28.1,00.0,38.0,31.4,17.1,0000.0,0005.38,0013.02,0004.72
2022-07-13 22:53:00,,0827.6,4.98,0.00,29.4,27.5,00.0,37.9,31.2,17.8,0000.0,0005.40,0013.36,0004.74
2022-07-13 22:54:00,,0827.6,5.00,0.00,29.3,27.1,00.0,37.9,31.2,18.2,0000.0,0005.42,0013.62,0004.74
2022-07-13 22:55:00,,0827.6,5.01,0.00,29.3,27.1,00.0,37.9,31.1,18.3,0000.0,0005.45,0014.38,0004.75
2022-07-13 22:56:00,,0827.7,5.00,0.00,29.3,27.3,00.0,37.9,31.0,18.1,0000.0,0005.46,0015.15,0004.75
2022-07-13 22:57:00,,0827.7,4.99,0.00,29.3,27.5,00.0,37.9,31.1,18.4,0000.0,0005.49,0014.49,0004.75
2022-07-13 22:58:00,,0827.7,5.01,0.00,29.3,27.7,00.0,37.9,31.1,18.2,0000.0,0005.49,0014.54,0004.76
2022-07-13 22:59:00,,0827.7,4.99,0.00,29.3,27.9,00.0,38.0,31.2,18.7,0000.0,0005.49,0014.34,0004.76
